This is the latest recevied weather packets stored in our database for station/object EA1FBN. If no packets are shown the sender has not sent any weather packets the latest 10 day(s).
| Time | Temp. | Humidity | Pressure | Rain* | Wind** | Luminosity | Snow |
|---|---|---|---|---|---|---|---|
| 1777893014 | 12.22° C | 71% | 1014 hPa | 0.25 mm | - | - | - |
| 1777892714 | 12.22° C | 68% | 1014 hPa | 0.25 mm | - | - | - |
| 1777892414 | 12.22° C | 71% | 1014 hPa | 0.25 mm | - | - | - |
| 1777892114 | 12.78° C | 72% | 1014 hPa | 0.25 mm | - | - | - |
| 1777891515 | 12.22° C | 69% | 1014 hPa | 0.25 mm | - | - | - |
| 1777891215 | 11.67° C | 70% | 1014.1 hPa | 0.25 mm | - | - | - |
| 1777890915 | 11.11° C | 71% | 1014.1 hPa | 0 mm | - | - | - |
| 1777890315 | 11.11° C | 73% | 1014.1 hPa | 0 mm | - | - | - |
| 1777890015 | 11.11° C | 73% | 1014.2 hPa | 0 mm | - | - | - |
| 1777889715 | 11.11° C | 75% | 1014.1 hPa | 0 mm | - | - | - |
| 1777889415 | 11.11° C | 75% | 1014.2 hPa | 0 mm | - | - | - |
| 1777889115 | 11.11° C | 75% | 1014.2 hPa | 0 mm | - | - | - |
| 1777888815 | 10.56° C | 75% | 1014.2 hPa | 0 mm | - | - | - |
| 1777888515 | 10.56° C | 75% | 1014.2 hPa | 0 mm | - | - | - |
| 1777888215 | 10° C | 75% | 1014.2 hPa | 0 mm | - | - | - |
| 1777887615 | 10° C | 75% | 1014.3 hPa | 0 mm | - | - | - |
| 1777887315 | 10.56° C | 75% | 1014.2 hPa | 0 mm | - | - | - |
| 1777887015 | 10.56° C | 74% | 1014.2 hPa | 0 mm | - | - | - |
| 1777886715 | 10.56° C | 74% | 1014.2 hPa | 0 mm | - | - | - |
| 1777886415 | 10.56° C | 74% | 1014.2 hPa | 0 mm | - | - | - |
| 1777886115 | 10.56° C | 74% | 1014.2 hPa | 0 mm | - | - | - |
| 1777885815 | 10.56° C | 75% | 1014.2 hPa | 0 mm | - | - | - |
| 1777885515 | 10.56° C | 75% | 1014.3 hPa | 0 mm | - | - | - |
| 1777885215 | 10.56° C | 75% | 1014.2 hPa | 0 mm | - | - | - |
| 1777884915 | 10.56° C | 75% | 1014.1 hPa | 0 mm | - | - | - |
* Rain latest hour (hover to see other rain measurements)
** Current wind speed in m/s (hover to see current wind gust speed)